Groton, CT

8:13 AM EST on February 21, 2017 (GMT -0500)
Groton-New London

Weather History for KGON - November, 2014

Change the Weather History Date:

Monday, November 17, 2014

  Actual Average Record
Temperature  
Mean Temperature 48 °F -  
Max Temperature 57 °F 51 °F 65 °F (1981)
Min Temperature 39 °F 32 °F 16 °F (1967)
Degree Days  
Heating Degree Days 17    
Moisture  
Dew Point 47 °F    
Average Humidity 98    
Maximum Humidity 100    
Minimum Humidity 83    
Precipitation  
Precipitation 0.81 in - - ()
Sea Level Pressure  
Sea Level Pressure 29.70 in    
Wind  
Wind Speed 8 mph (NNW)    
Max Wind Speed 20 mph    
Max Gust Speed 28 mph    
Visibility 4 miles    
Events Rain    
Averages and records for this station are not official NWS values.
T = Trace of Precipitation, MM = Missing Value Source: NWS Daily Summary

Daily Weather History Graph

Daily Weather History Graph

Search for Another Location

Airport or City:

Trip Planner

Search our weather history database for the weather conditions in past years. The results will help you decide how hot, cold, wet, or windy it might be!

Date:

Astronomy

Nov. 17, 2014 Rise Set
Actual Time 6:38 AM EST 4:27 PM EST
Civil Twilight 6:08 AM EST 4:56 PM EST
Nautical Twilight 5:35 AM EST 5:30 PM EST
Astronomical Twilight 5:02 AM EST 6:03 PM EST
Moon 1:34 AM EST (11/17) 1:52 PM EST (11/17)
Length of Visible Light 10h 47m
Length of Day
9h 48m
Waning Crescent, 23% of the Moon is Illuminated
Nov 17
Waning Crescent
Nov 22
New
Nov 29
First Quarter
Dec 6
Full
Dec 14
Last Quarter

Hourly Weather History & Observations

Time (EST) Temp. Windchill Dew Point Humidity Pressure Visibility Wind Dir Wind Speed Gust Speed Precip Events Conditions
12:56 AM 39.9 °F 37.8 °F 37.0 °F 89% 30.12 in 6.0 mi NE 3.5 mph - 0.00 in Rain Light Rain
1:56 AM 39.0 °F 35.7 °F 37.9 °F 96% 30.09 in 4.0 mi NNE 4.6 mph - 0.00 in Rain Light Rain
2:56 AM 39.0 °F 35.7 °F 37.9 °F 96% 30.04 in 4.0 mi NNE 4.6 mph - 0.00 in Rain Light Rain
3:39 AM 39.0 °F 35.7 °F 37.9 °F 96% 30.03 in 2.5 mi NE 4.6 mph - 0.02 in Rain Rain
3:56 AM 39.0 °F 34.8 °F 37.9 °F 96% 30.02 in 2.5 mi ENE 5.8 mph - 0.04 in Rain Light Rain
4:11 AM 39.0 °F 34.0 °F 37.9 °F 96% 30.01 in 3.0 mi ENE 6.9 mph - 0.00 in Rain Light Rain
4:20 AM 39.0 °F 34.0 °F 37.9 °F 96% 30.01 in 2.0 mi ENE 6.9 mph - 0.02 in Rain Rain
4:56 AM 39.0 °F 34.0 °F 37.9 °F 96% 29.99 in 2.5 mi ENE 6.9 mph - 0.05 in Rain Rain
5:19 AM 39.0 °F 34.8 °F 39.0 °F 100% 29.98 in 2.0 mi NE 5.8 mph - 0.01 in Rain Rain
5:30 AM 39.0 °F 35.7 °F 39.0 °F 100% 29.98 in 2.0 mi ENE 4.6 mph - 0.02 in Rain Rain
5:56 AM 39.9 °F 35.8 °F 39.9 °F 100% 29.97 in 2.5 mi NNE 5.8 mph - 0.04 in Rain Rain
6:43 AM 41.0 °F 35.2 °F 41.0 °F 100% 29.93 in 1.8 mi NNE 9.2 mph - 0.03 in Rain Light Rain
6:56 AM 41.0 °F 34.7 °F 41.0 °F 100% 29.93 in 3.0 mi North 10.4 mph - 0.03 in Rain Light Rain
7:06 AM 39.9 °F 33.4 °F 39.9 °F 100% 29.92 in 2.0 mi NNE 10.4 mph - 0.00 in Rain Light Rain
7:13 AM 39.9 °F 33.9 °F 39.9 °F 100% 29.91 in 1.2 mi NNE 9.2 mph - 0.00 in Rain Light Rain
7:56 AM 39.0 °F 32.3 °F 39.0 °F 100% 29.89 in 1.2 mi NNE 10.4 mph - 0.01 in Rain Rain
8:23 AM 39.0 °F 32.3 °F 39.0 °F 100% 29.87 in 2.0 mi NNE 10.4 mph - 0.02 in Rain Light Rain
8:46 AM 39.9 °F 32.5 °F 39.9 °F 100% 29.86 in 4.0 mi North 12.7 mph - 0.02 in Rain Light Rain
8:56 AM 39.0 °F 31.8 °F 39.0 °F 100% 29.86 in 2.5 mi NNE 11.5 mph - 0.03 in Rain Rain
9:11 AM 39.0 °F 31.4 °F 39.0 °F 100% 29.85 in 3.0 mi North 12.7 mph - 0.00 in Rain Light Rain
9:33 AM 39.9 °F 32.5 °F 39.9 °F 100% 29.83 in 2.0 mi NNE 12.7 mph - 0.00 in Rain Light Rain
9:46 AM 39.9 °F 33.9 °F 39.9 °F 100% 29.81 in 4.0 mi NNE 9.2 mph - 0.00 in Rain Light Rain
9:56 AM 41.0 °F 34.7 °F 41.0 °F 100% 29.81 in 5.0 mi NE 10.4 mph - 0.00 in   Overcast
10:03 AM 42.1 °F 34.5 °F 41.0 °F 96% 29.79 in 6.0 mi NE 15.0 mph - N/A   Overcast
10:44 AM 43.0 °F 38.2 °F 43.0 °F 100% 29.77 in 7.0 mi NNE 8.1 mph - 0.00 in Rain Light Rain
10:56 AM 44.1 °F 39.5 °F 43.0 °F 96% 29.76 in 8.0 mi NNE 8.1 mph - 0.00 in   Overcast
11:08 AM 44.1 °F 40.8 °F 43.0 °F 96% 29.75 in 8.0 mi NNE 5.8 mph - N/A   Overcast
11:53 AM 44.6 °F 41.4 °F 44.6 °F 100% 29.73 in 2.0 mi NE 5.8 mph - N/A   Overcast
11:56 AM 44.1 °F 42.5 °F 44.1 °F 100% 29.73 in 1.8 mi Variable 3.5 mph - N/A   Overcast
12:18 PM 45.0 °F 42.6 °F 44.1 °F 97% 29.71 in 2.0 mi NNE 4.6 mph - N/A   Overcast
12:42 PM 45.0 °F - 45.0 °F 100% 29.69 in 2.0 mi Calm Calm - N/A   Overcast
12:56 PM 45.0 °F - 45.0 °F 100% 29.69 in 1.2 mi Calm Calm - N/A   Overcast
1:56 PM 46.4 °F - 46.4 °F 100% 29.65 in 1.5 mi Calm Calm - N/A Rain Light Rain
2:56 PM 46.9 °F - 46.9 °F 100% 29.59 in 1.5 mi Calm Calm - 0.10 in Rain Light Rain
3:42 PM 54.0 °F - 54.0 °F 100% 29.55 in 2.5 mi South 11.5 mph - 0.04 in Rain Light Rain
3:54 PM 53.6 °F - 53.6 °F 100% 29.55 in 1.5 mi South 15.0 mph - 0.08 in Rain Rain
3:56 PM 55.0 °F - 55.0 °F 100% 29.55 in 1.5 mi South 13.8 mph - 0.08 in Rain Rain
4:06 PM 55.0 °F - 55.0 °F 100% 29.53 in 3.0 mi South 15.0 mph - 0.02 in Rain Rain
4:15 PM 55.0 °F - 55.0 °F 100% 29.54 in 1.8 mi South 19.6 mph - 0.11 in Rain Heavy Rain
4:22 PM 54.0 °F - 53.1 °F 97% 29.58 in 2.0 mi WNW 15.0 mph 27.6 mph 0.12 in Rain Rain
4:35 PM 57.2 °F - 55.4 °F 94% 29.55 in 3.0 mi SSW 18.4 mph 26.5 mph N/A Rain Light Rain
4:42 PM 55.9 °F - 55.0 °F 97% 29.55 in 4.0 mi SSW 12.7 mph - 0.22 in Rain Heavy Rain
4:53 PM 55.4 °F - 55.4 °F 100% 29.55 in 3.0 mi SSW 12.7 mph 21.9 mph 0.26 in Rain Rain
4:56 PM 55.9 °F - 55.9 °F 100% 29.55 in 3.0 mi SSW 15.0 mph - 0.26 in Rain Rain
5:11 PM 55.9 °F - 55.9 °F 100% 29.54 in 2.5 mi SSW 13.8 mph - 0.06 in Rain Rain
5:24 PM 57.0 °F - 55.9 °F 96% 29.53 in 3.0 mi SSW 12.7 mph - 0.09 in Rain Rain
5:42 PM 57.0 °F - 57.0 °F 100% 29.53 in 2.5 mi WSW 6.9 mph - 0.14 in Rain Rain
5:56 PM 57.0 °F - 57.0 °F 100% 29.52 in 2.5 mi SSW 9.2 mph - 0.17 in Rain Light Rain
6:05 PM 57.9 °F - 57.9 °F 100% 29.51 in 4.0 mi SSW 18.4 mph 23.0 mph 0.00 in Rain Light Rain
6:19 PM 57.9 °F - 57.9 °F 100% 29.49 in 5.0 mi SW 16.1 mph - 0.00 in Rain Light Rain
6:27 PM 57.9 °F - 57.9 °F 100% 29.49 in 6.0 mi SW 15.0 mph - 0.00 in Rain Light Rain
6:36 PM 57.9 °F - 57.0 °F 97% 29.49 in 6.0 mi SSW 15.0 mph - 0.00 in Rain Light Rain
6:56 PM 57.0 °F - 57.0 °F 100% 29.48 in 5.0 mi SSW 13.8 mph - 0.00 in   Overcast
7:46 PM 57.0 °F - 57.0 °F 100% 29.47 in 3.0 mi WSW 10.4 mph - 0.00 in Rain Light Rain
7:56 PM 57.0 °F - 57.0 °F 100% 29.46 in 6.0 mi West 13.8 mph 25.3 mph 0.00 in Rain Light Rain
8:05 PM 57.0 °F - 55.9 °F 96% 29.46 in 9.0 mi WSW 12.7 mph - 0.00 in   Overcast
8:36 PM 54.0 °F - 52.0 °F 93% 29.45 in 5.0 mi West 10.4 mph 25.3 mph 0.00 in Rain Light Rain
8:56 PM 53.1 °F - 51.1 °F 93% 29.47 in 9.0 mi West 11.5 mph - 0.00 in Rain Light Rain
9:14 PM 53.1 °F - 51.1 °F 93% 29.46 in 8.0 mi West 9.2 mph - 0.00 in   Overcast
9:53 PM 51.8 °F - 51.8 °F 100% 29.47 in 8.0 mi West 10.4 mph - 0.00 in   Overcast
9:56 PM 51.1 °F - 51.1 °F 100% 29.47 in 8.0 mi West 10.4 mph - 0.00 in   Overcast
10:39 PM 51.1 °F - 48.0 °F 89% 29.46 in 10.0 mi West 10.4 mph - 0.00 in   Overcast
10:56 PM 50.0 °F - 46.9 °F 89% 29.48 in 10.0 mi West 10.4 mph - 0.00 in   Mostly Cloudy
11:40 PM 48.9 °F - 46.0 °F 90% 29.48 in 10.0 mi WNW 9.2 mph - 0.00 in   Overcast
11:56 PM 48.9 °F - 44.1 °F 83% 29.49 in 10.0 mi WNW 13.8 mph - 0.00 in   Overcast